Weather History for KDGW - October, 2013

Change the Weather History Date:

Tuesday, October 29, 2013

  Actual Average Record
Temperature  
Mean Temperature 33 °F 41 °F  
Max Temperature 40 °F 56 °F 76 °F (2008)
Min Temperature 26 °F 26 °F 9 °F (2009)
Degree Days  
Heating Degree Days 32 24  
Month to date heating degree days 634 550  
Since 1 July heating degree days 772 819  
Cooling Degree Days 0 0  
Month to date cooling degree days 0 0  
Year to date cooling degree days 739 486  
Moisture  
Dew Point 29 °F    
Average Humidity 89    
Maximum Humidity 96    
Minimum Humidity 82    
Precipitation  
Precipitation 0.00 in 0.02 in 0.08 in (2004)
Month to date precipitation 0.01 1.02  
Year to date precipitation 7.27 12.30  
Sea Level Pressure  
Sea Level Pressure 30.00 in    
Wind  
Wind Speed 11 mph (SE)    
Max Wind Speed 22 mph    
Max Gust Speed 26 mph    
Visibility 8 miles    
Events      
T = Trace of Precipitation, MM = Missing Value Source: NWS Daily Summary

Daily Weather History Graph

Daily Weather History Graph

Search for Another Location

Airport or City:

Trip Planner

Search our weather history database for the weather conditions in past years. The results will help you decide how hot, cold, wet, or windy it might be!

Date:

Astronomy

Oct. 29, 2013 Rise Set
Actual Time 7:32 AM MDT 5:57 PM MDT
Civil Twilight 7:02 AM MDT 6:26 PM MDT
Nautical Twilight 6:29 AM MDT 7:00 PM MDT
Astronomical Twilight 5:56 AM MDT 7:32 PM MDT
Moon 2:17 AM MDT (10/29) 3:18 PM MDT (10/29)
Length of Visible Light 11h 23m
Length of Day
10h 25m
Waning Crescent, 24% of the Moon is Illuminated
Oct 29
Waning Crescent
Nov 3
New
Nov 9
First Quarter
Nov 17
Full
Nov 25
Last Quarter

Hourly Weather History & Observations

Time (MDT) Temp. Windchill Dew Point Humidity Pressure Visibility Wind Dir Wind Speed Gust Speed Precip Events Conditions
12:53 AM 26.1 °F 12.0 °F 24.1 °F 92% 30.14 in 7.0 mi ESE 20.7 mph 27.6 mph N/A   Overcast
1:53 AM 27.0 °F 13.5 °F 25.0 °F 92% 30.12 in 6.0 mi SE 19.6 mph - N/A   Overcast
2:53 AM 27.0 °F 16.1 °F 25.0 °F 92% 30.12 in 5.0 mi ESE 12.7 mph - N/A   Overcast
3:53 AM 27.0 °F 15.2 °F 25.0 °F 92% 30.11 in 5.0 mi ESE 15.0 mph - N/A   Overcast
4:53 AM 27.0 °F 14.7 °F 25.0 °F 92% 30.11 in 6.0 mi ESE 16.1 mph - N/A   Overcast
5:53 AM 27.0 °F 15.6 °F 25.0 °F 92% 30.12 in 7.0 mi ESE 13.8 mph - N/A   Overcast
6:53 AM 27.0 °F 15.2 °F 25.0 °F 92% 30.11 in 10.0 mi ESE 15.0 mph - N/A   Overcast
7:53 AM 27.0 °F 14.7 °F 25.0 °F 92% 30.09 in 9.0 mi ESE 16.1 mph - N/A   Overcast
8:53 AM 28.0 °F 16.5 °F 26.1 °F 92% 30.09 in 6.0 mi ESE 15.0 mph - N/A   Overcast
9:53 AM 28.9 °F 16.9 °F 27.0 °F 92% 30.08 in 6.0 mi SE 17.3 mph - N/A   Overcast
10:53 AM 30.0 °F 19.1 °F 28.0 °F 92% 30.07 in 6.0 mi SE 15.0 mph - N/A   Overcast
11:53 AM 30.0 °F 19.1 °F 28.9 °F 96% 30.05 in 9.0 mi SE 15.0 mph - N/A   Overcast
12:02 PM 30.2 °F 18.5 °F 28.4 °F 93% 29.96 in 8.0 mi SE 17.3 mph - N/A   Overcast
12:53 PM 32.0 °F 24.2 °F 30.0 °F 92% 30.04 in 10.0 mi SSE 9.2 mph - N/A   Overcast
1:00 PM 32.0 °F 24.2 °F 30.2 °F 93% 29.96 in 10.0 mi SSE 9.2 mph - N/A   Overcast
1:53 PM 35.1 °F - 30.9 °F 85% 30.01 in 10.0 mi Calm Calm - N/A   Mostly Cloudy
2:21 PM 37.4 °F 33.8 °F 30.2 °F 75% 29.91 in 10.0 mi NNE 4.6 mph - N/A   Mostly Cloudy
2:53 PM 37.0 °F 30.4 °F 32.0 °F 82% 29.95 in 10.0 mi East 9.2 mph - N/A   Mostly Cloudy
3:53 PM 37.0 °F 29.8 °F 32.0 °F 82% 29.95 in 10.0 mi SSE 10.4 mph - N/A   Mostly Cloudy
4:41 PM 37.4 °F 31.4 °F 32.0 °F 81% 29.90 in 10.0 mi SE 8.1 mph - N/A   Overcast
4:53 PM 36.0 °F 33.3 °F 30.9 °F 82% 29.98 in 10.0 mi East 3.5 mph - N/A   Overcast
5:18 PM 35.6 °F 32.8 °F 30.2 °F 81% 29.91 in 10.0 mi East 3.5 mph - N/A   Overcast
5:53 PM 36.0 °F 33.3 °F 30.9 °F 82% 29.99 in 10.0 mi ESE 3.5 mph - N/A   Overcast
6:53 PM 35.1 °F 31.0 °F 30.9 °F 85% 30.01 in 10.0 mi ESE 4.6 mph - N/A   Overcast
7:53 PM 35.1 °F 28.6 °F 32.0 °F 89% 30.01 in 10.0 mi SSE 8.1 mph - N/A   Mostly Cloudy
8:53 PM 35.1 °F 26.4 °F 32.0 °F 89% 29.99 in 10.0 mi SE 12.7 mph - N/A   Mostly Cloudy
9:06 PM 35.6 °F 25.9 °F 32.0 °F 87% 29.93 in 10.0 mi SE 16.1 mph - N/A   Scattered Clouds
9:29 PM 35.6 °F 25.9 °F 32.0 °F 87% 29.92 in 10.0 mi SE 16.1 mph - N/A   Mostly Cloudy
9:53 PM 35.1 °F 26.4 °F 32.0 °F 89% 29.99 in 10.0 mi SE 12.7 mph - N/A   Overcast
10:53 PM 34.0 °F 25.0 °F 32.0 °F 92% 29.96 in 7.0 mi SE 12.7 mph - N/A   Mostly Cloudy
11:11 PM 33.8 °F 29.6 °F 32.0 °F 93% 29.89 in 7.0 mi ESE 4.6 mph - N/A   Scattered Clouds
11:21 PM 33.8 °F 25.8 °F 32.0 °F 93% 29.88 in 6.0 mi ESE 10.4 mph - N/A   Mostly Cloudy
11:32 PM 33.8 °F 25.8 °F 32.0 °F 93% 29.87 in 6.0 mi ESE 10.4 mph - N/A   Scattered Clouds
11:49 PM 33.8 °F 24.3 °F 32.0 °F 93% 29.87 in 6.0 mi SE 13.8 mph - N/A   Mostly Cloudy
11:53 PM 34.0 °F 23.8 °F 32.0 °F 92% 29.94 in 6.0 mi SE 16.1 mph - N/A   Mostly Cloudy